TimeCST,TemperatureF,Dew PointF,Humidity,Sea Level PressureIn,VisibilityMPH,Wind Direction,Wind SpeedMPH,Gust SpeedMPH,PrecipitationIn,Events,Conditions,WindDirDegrees,DateUTC
12:53 AM,68.0,57.0,68,29.95,10.0,South,10.4,-,N/A,,Scattered Clouds,180,2012-12-03 06:53:00
1:53 AM,68.0,57.9,70,29.95,10.0,South,15.0,25.3,N/A,,Clear,180,2012-12-03 07:53:00
2:53 AM,66.9,57.9,73,29.95,10.0,South,11.5,21.9,N/A,,Overcast,180,2012-12-03 08:53:00
3:53 AM,64.9,57.9,78,29.95,10.0,South,11.5,20.7,N/A,,Mostly Cloudy,180,2012-12-03 09:53:00
4:53 AM,64.9,57.9,78,29.93,10.0,South,16.1,24.2,N/A,,Partly Cloudy,180,2012-12-03 10:53:00
5:53 AM,64.0,59.0,84,29.93,10.0,South,15.0,26.5,N/A,,Partly Cloudy,170,2012-12-03 11:53:00
6:53 AM,64.0,57.9,80,29.93,10.0,South,11.5,26.5,N/A,,Clear,180,2012-12-03 12:53:00
7:53 AM,64.9,57.9,78,29.95,10.0,South,11.5,24.2,N/A,,Partly Cloudy,180,2012-12-03 13:53:00
8:53 AM,66.0,57.9,75,29.96,10.0,South,16.1,26.5,N/A,,Partly Cloudy,180,2012-12-03 14:53:00
9:53 AM,69.1,57.9,68,29.96,10.0,South,18.4,26.5,N/A,,Mostly Cloudy,190,2012-12-03 15:53:00
10:53 AM,70.0,57.0,63,29.96,10.0,SSW,17.3,28.8,N/A,,Overcast,200,2012-12-03 16:53:00
11:45 AM,73.4,57.2,57,29.95,10.0,South,18.4,32.2,N/A,,Mostly Cloudy,190,2012-12-03 17:45:00
11:53 AM,73.0,57.0,57,29.92,10.0,South,17.3,34.5,N/A,,Mostly Cloudy,190,2012-12-03 17:53:00
12:53 PM,75.9,55.9,50,29.89,10.0,SSW,18.4,29.9,N/A,,Clear,200,2012-12-03 18:53:00
1:53 PM,75.9,55.9,50,29.85,10.0,South,18.4,33.4,N/A,,Partly Cloudy,180,2012-12-03 19:53:00
2:53 PM,77.0,55.9,48,29.84,10.0,South,17.3,29.9,N/A,,Clear,190,2012-12-03 20:53:00
3:53 PM,77.0,54.0,45,29.83,10.0,South,17.3,28.8,N/A,,Mostly Cloudy,190,2012-12-03 21:53:00
4:53 PM,75.9,54.0,46,29.85,10.0,South,15.0,26.5,N/A,,Partly Cloudy,190,2012-12-03 22:53:00
5:53 PM,73.0,55.0,53,29.85,10.0,South,10.4,17.3,N/A,,Scattered Clouds,180,2012-12-03 23:53:00
6:53 PM,71.1,55.0,57,29.89,10.0,South,4.6,-,N/A,,Clear,170,2012-12-04 00:53:00
7:53 PM,71.1,55.9,59,29.92,10.0,South,6.9,-,N/A,,Mostly Cloudy,190,2012-12-04 01:53:00
8:53 PM,69.1,57.9,68,29.93,10.0,SSE,6.9,-,N/A,,Partly Cloudy,150,2012-12-04 02:53:00
9:53 PM,68.0,60.1,76,29.94,10.0,SSE,8.1,-,N/A,,Clear,150,2012-12-04 03:53:00
10:53 PM,68.0,59.0,73,29.94,10.0,SSE,8.1,-,N/A,,Scattered Clouds,160,2012-12-04 04:53:00
11:53 PM,68.0,57.2,68,29.96,10.0,South,9.2,-,N/A,,Partly Cloudy,180,2012-12-04 05:53:00